Miscellaneous Local Product
Issued by NWS North Platte, NE

Home | Current Version | Previous Version | Text Only | Print | Product List | Glossary On
Versions: 1 2 3 4 5 6 7 8 9 10 11 12 13 14 15 16 17 18 19 20 21 22 23 24 25 26 27 28 29 30 31 32 33 34 35 36 37 38 39 40 41 42 43 44 45 46 47 48 49 50
496
AXUS43 KLBF 310310
MISLBF


WESTERN AND NORTH CENTRAL NEBRASKA HOURLY WEATHER ROUNDUP
NATIONAL WEATHER SERVICE NORTH PLATTE NE
1000 PM CDT SAT JUL 30 2016

NOTE: "FAIR" INDICATES FEW OR NO CLOUDS BELOW 12,000 FEET WITH NO
SIGNIFICANT WEATHER AND/OR OBSTRUCTIONS TO VISIBILITY.

NOTE: STATIONS NOT REPORTING VARIABLES SUCH AS SKY/WEATHER OR
PRESSURE ARE PROVIDED BY RAWS AND APRS NETWORKS AND ARE NOT UNDER
NATIONAL WEATHER SERVICE QUALITY CONTROL.

...OBSERVATIONS IN AND NEAR THE EASTERN PANHANDLE OF NEBRASKA...

CITY           SKY/WX    TMP DP  RH WIND       PRES   REMARKS
PINE RIDGE     CLEAR     80  61  52 SE17G23   29.85S
CHADRON        CLEAR     81  59  47 SE18G28   29.82R
ALLIANCE       CLEAR     70  61  73 S7        29.92R
SIDNEY         CLEAR     71  60  68 S9        29.97R
CRESCENT LAKE    N/A     73  63  72 S5          N/A
$$

...OBSERVATIONS IN NORTHERN NEBRASKA AND FAR SOUTHERN SOUTH DAKOTA...

CITY           SKY/WX    TMP DP  RH WIND       PRES   REMARKS
WINNER         FAIR      76  69  79 SE15      29.86R
VALENTINE      CLOUDY    78  65  63 S18       29.87F
THEDFORD       CLOUDY    76  69  78 SE6       29.95R
AINSWORTH      CLOUDY    75  69  80 S6        29.92F
O`NEILL        CLOUDY    73  66  79 SE10      29.94R
ORD            CLOUDY    74  69  85 SE9       29.93R
BROKEN BOW     CLEAR     73  69  87 SE8       29.94R
VALENTINE NWR    N/A     75  66  74 S6          N/A
BUTTE            N/A     71  65  82 SE12        N/A
HALSEY           N/A     76  67  72 SE6         N/A
EWING            N/A     71  67  87 S3          N/A
$$

...OBSERVATIONS IN SOUTHWEST NEBRASKA AND FAR NORTHEAST COLORADO...

CITY           SKY/WX    TMP DP  RH WIND       PRES   REMARKS
WRAY           FAIR      81  59  47 E7        29.91
HOLYOKE        FAIR      73  64  73 SE6       29.93R
IMPERIAL       CLEAR     75  64  68 SE9       29.92R
OGALLALA       CLEAR     78  62  57 E6        29.92R
NORTH PLATTE   CLEAR     73  69  87 E9        29.92R
MCCOOK         CLEAR     77  64  64 E8        29.90R
LEXINGTON      CLEAR     76  68  77 SE9       29.94R
STAPLETON        N/A     73  68  85 CALM        N/A
GOTHENBURG       N/A     76  66  71 E5          N/A
CALLAWAY         N/A     74  68  82 SE9         N/A
$$

...OBSERVATIONS IN CENTRAL LINCOLN COUNTY AREA...

CITY           SKY/WX    TMP DP  RH WIND       PRES   REMARKS
N.P. AIRPORT   CLEAR     73  69  87 E9        29.92R
N.P. DOWNTOWN    N/A     77  69  76 CALM        N/A
N.P. HILLCREST   N/A     75  69  82 SE12        N/A
$$

...SOME OBSERVATIONS FROM AROUND THE REGION...

CITY           SKY/WX    TMP DP  RH WIND       PRES   REMARKS
DENVER         MOCLDY    84  41  21 N6        30.01R
LARAMIE        CLOUDY    70  39  32 W9        30.14R
CHEYENNE       CLOUDY    74  57  55 S15       30.07R
SCOTTSBLUFF    CLOUDY    80  60  50 SE13      29.88F
RAPID CITY     TSTM      63  61  93 SE23G31   29.83F FOG
BISMARCK       CLEAR     75  64  68 SE15      29.80R
PIERRE         TSTM      67  62  84 E31G48    29.90R VSB 3/4
SIOUX FALLS    PTCLDY    74  59  59 SE8       29.96R
OMAHA          PTCLDY    75  64  68 SE6       29.96R
GRAND ISLAND   CLEAR     73  66  78 SE12      29.95R
KANSAS CITY    CLEAR     77  65  66 SE10      29.98R
WICHITA        PTCLDY    80  71  74 SE10      29.93R
OKLAHOMA CITY  PTCLDY    82  71  69 SE8       29.92R
DALLAS         PTCLDY    91  67  44 SE12      29.93R HX  94
AMARILLO       CLEAR     78  61  55 SE16      30.02R
DODGE CITY     CLEAR     80  63  55 SE14G21   29.91R
HAYS           CLEAR     79  64  61 SE14      29.91R
GOODLAND       CLOUDY    75  65  70 SE10      29.91S
$$




USA.gov is the U.S. government's official web portal to all federal, state and local government web resources and services.